www.pogodaiklimat.ru

Погода и климат >> Архив погоды >> Италия >> Капо Кацция


ПОГОДА на Капо Кацция

  • Прогноз погоды на Капо Кацция
  • Монитор погоды на Капо Кацция

АРХИВ ПОГОДЫ на Капо Кацция

Время (UTC), дата Ветер
(напр.,м/с)
 
Видим.   Явления Облачность Т
(С)
Тd
(С)
f
(%)
Тe
(С)
Тes
(С)
Комфортность P
(гПа)
Po
(гПа)
Тmin
(С)
Tmax
(С)
R
(мм)
R24
(мм)
S
(см)
07 9.06 З 2 20 км 6/0
[As trans Ci fib]
+26.2 +21.5 75 +33 +38 очень
душно
1015.1 991.9
08 9.06 ЮВ 2 20 км 4/0
[Ac trans]
+28.8 +20.2 60 +35 +43 очень
душно
1014.7 991.7
09 9.06 В 3 20 км ясно +31.4 +19.7 50 +37 +51 опасность
солнечного
удара
1013.8 991.0
10 9.06 Ю 5 20 км ясно +30.0 +18.4 50 +35 +45 очень
душно
1014.0 991.1
11 9.06 ЮВ 8 20 км ясно +31.0 +19.3 50 +37 +40 очень
душно
1013.9 991.1
12 9.06 Ю 8 20 км ясно +31.2 +19.6 50 +37 +40 очень
душно
1012.9 990.1
13 9.06 Ю 9 20 км ясно +33.4 +16.8 37 +36 +39 очень
душно
1012.7 990.1
14 9.06 Ю 6 20 км ясно +33.0 +18.8 43 +38 +43 очень
душно
1012.8 990.1
15 9.06 Ю 6 20 км ясно +33.2 +19.7 45 +39 +43 очень
душно
1012.5 989.8
16 9.06 З 5 20 км ясно +27.0 +21.5 72 +34 +38 очень
душно
1012.8 989.7
17 9.06 ЮЗ 5 20 км 4/0
[Ci fib]
+27.0 +19.8 65 +33 +34 очень
душно
1012.2 989.1
18 9.06 ЮВ 3 20 км 5/0
[Ci fib]
+27.6 +20.2 64 +34 +34 очень
душно
1012.2 989.1 +33.8
19 9.06 ЮВ 4 20 км 4/0
[Ac As Ci fib]
+27.6 +19.2 60 +33 +33 очень
душно
1011.8 988.7
20 9.06 Ю 3 20 км 4/0
[Ac As Ci fib]
+28.0 +19.6 60 +34 +34 очень
душно
1011.7 988.7
21 9.06 СЗ 3 20 км 5/0 2000 м
[Ac trans Ci fib]
+27.6 +20.5 65 +34 +34 очень
душно
1012.0 988.9
22 9.06 З 6 20 км 5/0
[Ac trans Ci fib]
+27.0 +21.1 70 +34 +34 очень
душно
1012.7 989.6
23 9.06 В 8 20 км 5/0
[Ac trans Ci fib]
+24.8 +22.6 88 +33 +33 очень
душно
1010.6 987.3
00 10.06 В 5 20 км 5/0 2000 м
[Ac trans Ci fib]
+26.2 +17.3 58 +30 +30 душно 1010.2 987.1
01 10.06 СВ 3 20 км 5/0
[Ac trans Ci fib]
+25.8 +16.9 58 +30 +30 душно 1009.3 986.1
02 10.06 З 5 20 км 9/4 450 м
[Cu med, cong Ac und]
+23.0 +20.3 85 +30 +30 очень
душно
1008.4 985.0
03 10.06 Ю 5 20 км 9/3 450 м
[Cu hum As trans]
+21.4 +21.4 100 +27 +27 душно 1009.6 986.1
04 10.06 Ю 2 1000 м дымка 9/9 150 м
[St]
+20.0 +19.7 98 +24 +24 комфорт 1009.6 986.0
05 10.06 Ю 5 <100 м туман ?/? +19.0 +18.6 98 +21 +21 комфорт 1009.8 986.1
06 10.06 Ю 7 50 м туман ?/? +18.8 +17.9 95 +20 +20 1009.7 986.0 +18.8
07 10.06 ЮВ 9 500 м туман 10/10 150 м
[Frnb]
+18.8 +17.9 95 +19 +19 1009.8 986.1
08 10.06 Ю 7 500 м туман 9/6 90 м
[St As op]
+19.4 +18.6 95 +21 +22 комфорт 1009.7 986.0
09 10.06 Ю 7 50 м туман 10/10 30 м
[St]
+19.0 +18.2 95 +20 +20 1010.2 986.5
10 10.06 Ю 7 2000 м в посл. час туман 9/9 90 м
[St]
+20.0 +19.2 95 +23 +23 комфорт 1010.6 987.0
11 10.06 Ю 5 2000 м дымка 10/10 90 м
[St]
+20.0 +19.2 95 +23 +23 комфорт 1010.6 987.0
12 10.06 ЮЗ 5 1000 м дымка {туман} 10/10 90 м
[St]
+19.6 +18.8 95 +22 +22 комфорт 1010.6 987.0
13 10.06 ЮЗ 4 4000 м дымка 9/5 180 м
[St Ci fib]
+20.0 +19.2 95 +23 +29 комфорт 1010.6 987.0
14 10.06 Ю 7 4000 м дымка 9/5 150 м
[St As op]
+20.2 +19.3 95 +24 +24 комфорт 1010.6 987.0
15 10.06 Ю 4 4000 м дымка 9/9 90 м
[St]
+20.2 +19.3 95 +24 +25 комфорт 1010.6 987.0
16 10.06 Ю 6 4000 м дымка 1/1 90 м
[St]
+20.0 +18.7 92 +23 +25 комфорт 1010.5 986.9
17 10.06 Ю 3 4000 м дымка 9/9 90 м
[St]
+19.8 +18.3 91 +23 +23 комфорт 1009.9 986.3
18 10.06 Ю 2 4000 м дымка 8/4 90 м
[St Ci fib]
+19.2 +18.2 94 +22 +22 комфорт 1009.6 986.0 +20.4
19 10.06 С 2 2000 м дымка 10/10 90 м
[St]
+19.0 +18.3 96 +21 +21 комфорт 1009.7 986.0
20 10.06 СЗ 2 10 км 6/6 90 м
[St]
+18.4 +17.5 94 +20 +20 1010.6 986.9
21 10.06 З 2 10 км 8/8 150 м
[St]
+18.2 +17.5 96 +19 +19 1011.2 987.4
22 10.06 СЗ 2 10 км 9/9 90 м
[St]
+18.2 +17.5 96 +19 +19 1005.1 981.5
23 10.06 З 3 10 км 9/9 90 м
[St]
+18.4 +18.1 98 +19 +19 1011.2 987.5
00 11.06 З 3 10 км 9/9 90 м
[St]
+18.2 +17.7 97 +19 +19 1011.3 987.5
02 11.06 С 2 10 км ясно +17.6 +16.8 95 +18 +18 1010.2 986.4
03 11.06 СВ 1 10 км 3/0 2000 м
[Ac trans]
+17.2 +16.4 95 +18 +18 1010.0 986.2
04 11.06 С 2 10 км 1/0
[Ac trans]
+16.6 +16.3 98 +17 +17 1010.0 986.1
05 11.06 СЗ 1 10 км 3/0
[Ci fib]
+17.2 +16.8 97 +18 +19 1010.0 986.2
06 11.06 С 1 4000 м дымка 1/0
[Ci fib]
+18.4 +17.5 94 +20 +23 1009.8 986.1 +16.4
07 11.06 СЗ 2 10 км ясно +19.4 +18.6 95 +22 +28 комфорт 1009.8 986.2
08 11.06 СЗ 3 10 км ясно +19.2 +18.7 97 +22 +31 комфорт 1010.0 986.3
09 11.06 СЗ 2 10 км 3/3 600 м
[Cu hum]
+19.2 +18.2 94 +22 +32 комфорт 1010.0 986.3
10 11.06 СЗ 3 10 км ясно +19.4 +18.6 95 +22 +39 комфорт 1010.2 986.5
11 11.06 СЗ 3 10 км ясно +19.6 +18.4 93 +23 +41 комфорт 1010.1 986.4
12 11.06 СЗ 5 10 км ясно +20.8 +16.7 77 +24 +34 комфорт 1009.1 985.6
13 11.06 СЗ 7 10 км 3/0
[Ci fib]
+21.8 +16.1 70 +26 +31 душно 1008.9 985.4
14 11.06 С 5 10 км ясно +22.4 +18.8 80 +28 +35 душно 1008.4 985.0
15 11.06 С 7 10 км 3/0
[Ci fib]
+22.4 +19.2 82 +28 +31 душно 1008.2 984.8
16 11.06 С 5 10 км 4/0
[Ci sp]
+21.4 +19.3 88 +26 +29 душно 1008.3 984.8
17 11.06 С 5 10 км 3/0
[Ci fib]
+20.4 +18.3 88 +24 +25 комфорт 1008.3 984.7
18 11.06 СЗ 4 10 км 3/0
[Ci fib]
+19.8 +18.1 90 +23 +23 комфорт 1008.6 985.0 +23.2
19 11.06 С 6 10 км ясно +18.4 +18.1 98 +19 +19 1008.7 985.0
20 11.06 С 6 10 км ясно +18.0 +17.4 96 +18 +18 1009.1 985.3
21 11.06 С 6 10 км ясно +18.0 +18.0 100 +17 +17 1009.8 986.0
22 11.06 С 6 10 км 3/0
[Ac trans]
+17.8 +17.2 96 +17 +17 1010.2 986.4
23 11.06 С 6 10 км 3/0
[Ac trans]
+17.6 +15.8 89 +17 +17 1010.3 986.5
00 12.06 С 6 10 км ясно +17.6 +15.0 85 +17 +17 1010.3 986.5
01 12.06 С 5 10 км ясно +17.6 +15.6 88 +17 +17 1010.8 987.0
02 12.06 С 4 10 км ясно +16.8 +16.5 98 +16 +16 1010.9 987.0
03 12.06 СЗ 6 10 км ясно +16.8 +16.0 95 +16 +16 1010.9 987.0
04 12.06 С 4 10 км ясно +16.8 +16.0 95 +16 +16 1010.9 987.0
05 12.06 С 4 10 км 3/3 300 м
[St]
+16.6 +16.1 97 +16 +16 1011.3 987.4
06 12.06 СВ 2 10 км 3/3 300 м
[St]
+17.4 +15.4 88 +18 +20 1011.9 988.0 +16.4
07 12.06 З 4 10 км 4/4 360 м
[St]
+18.0 +15.4 85 +18 +21 1012.3 988.5
08 12.06 СЗ 4 20 км 3/3 360 м
[St]
+18.0 +15.5 85 +18 +23 1012.7 988.9
09 12.06 СЗ 5 20 км ясно +18.0 +15.3 84 +18 +25 1012.8 989.0
10 12.06 ЮЗ 6 20 км ясно +18.0 +14.9 82 +17 +24 1013.1 989.3
11 12.06 СЗ 5 20 км ясно +18.2 +14.8 81 +18 +30 опасность
простуды
1013.7 989.9
12 12.06 СЗ 5 20 км ясно +18.4 +14.5 78 +19 +29 1013.8 990.0
13 12.06 СЗ 5 20 км ясно +18.8 +14.4 76 +20 +30 1014.2 990.4
14 12.06 СЗ 7 20 км ясно +18.8 +14.4 76 +19 +24 1014.5 990.7
15 12.06 С 5 20 км ясно +18.6 +13.6 73 +19 +24 1014.5 990.7
16 12.06 СЗ 5 20 км ясно +19.0 +13.6 71 +20 +23 1014.5 990.7
17 12.06 С 5 20 км ясно +19.0 +13.6 71 +20 +21 1014.3 990.5
18 12.06 С 5 20 км ясно +17.6 +12.7 73 +17 +17 1014.3 990.4 +19.4
19 12.06 С 5 20 км ясно +17.2 +13.4 78 +17 +17 1014.3 990.4
20 12.06 СВ 6 20 км ясно +17.0 +13.5 80 +16 +16 1014.3 990.4
21 12.06 СВ 7 20 км ясно +16.4 +13.5 83 +15 +15 1015.0 991.0
22 12.06 СВ 7 20 км ясно +16.2 +14.0 87 +15 +15 1015.0 991.0
23 12.06 СВ 5 20 км ясно +16.2 +13.5 84 +15 +15 1015.1 991.1
00 13.06 СВ 6 20 км ясно +16.2 +14.0 87 +15 +15 1015.0 991.0
01 13.06 СВ 6 20 км ясно +16.0 +13.9 87 +15 +15 1014.8 990.8
02 13.06 СВ 8 20 км ясно +15.2 +14.2 94 +13 +13 1014.1 990.0
03 13.06 СВ 8 20 км ясно +15.2 +14.6 96 +13 +13 1014.1 990.0
04 13.06 СВ 7 20 км ясно +15.0 +13.1 88 +13 +13 1014.1 990.0
05 13.06 СВ 6 20 км ясно +15.2 +13.9 92 +13 +14 1014.9 990.8
06 13.06 СВ 6 20 км ясно +15.2 +13.6 90 +13 +15 1014.9 990.8 +15.0
07 13.06 СВ 6 20 км ясно +19.2 +12.3 64 +20 +23 1014.7 991.0
08 13.06 СВ 5 20 км ясно +21.2 +14.4 65 +24 +30 комфорт 1014.9 991.3
09 13.06 СВ 4 20 км ясно +23.6 +13.7 54 +26 +36 жарко 1014.5 991.1
10 13.06 СВ 2 20 км ясно +25.8 +14.6 50 +28 +46 жарко 1014.3 991.1
11 13.06 СЗ 3 20 км ясно +27.0 +15.0 48 +30 +48 душно 1014.2 991.1
12 13.06 СЗ 3 20 км ясно +27.0 +14.4 46 +29 +47 жарко 1013.8 990.7
13 13.06 СЗ 3 20 км ясно +25.6 +16.1 56 +29 +45 душно 1013.7 990.5
14 13.06 СВ 7 20 км ясно +29.0 +17.2 49 +33 +37 очень
душно
1013.3 990.3
15 13.06 С 8 20 км ясно +28.8 +17.4 50 +33 +35 очень
душно
1012.9 989.9
16 13.06 СВ 8 20 км ясно +28.0 +18.1 55 +33 +34 очень
душно
1012.3 989.3
17 13.06 СВ 6 20 км ясно +27.0 +19.9 65 +33 +34 очень
душно
1011.7 988.6
18 13.06 СВ 5 20 км ясно +25.6 +17.8 62 +30 +30 душно 1011.7 988.4 +29.2
19 13.06 СВ 5 20 км ясно +25.6 +18.5 65 +30 +30 душно 1011.2 988.0
20 13.06 СВ 2 15 км ясно +25.2 +17.4 62 +29 +29 душно 1011.5 988.2
21 13.06 В 2 15 км ясно +25.6 +19.7 70 +31 +31 очень
душно
1011.4 988.2
22 13.06 СВ 2 15 км ясно +25.0 +18.2 66 +29 +29 душно 1011.5 988.2
23 13.06 Ю 1 10 км ясно +25.0 +16.2 58 +28 +28 жарко 1011.5 988.2
00 14.06 В 2 15 км ясно +25.0 +16.7 60 +29 +29 душно 1011.5 988.2
01 14.06 В 5 10 км ясно +25.0 +13.9 50 +27 +27 жарко 1011.4 988.1
02 14.06 В 4 10 км 3/3 900 м
[Cu hum]
+27.0 +11.1 37 +28 +28 жарко 1010.1 987.0
03 14.06 В 4 10 км 3/3 900 м
[Cu hum]
+27.0 +12.2 40 +28 +28 жарко 1010.1 987.1
04 14.06 В 7 20 км ясно +28.8 +13.9 40 +31 +31 жарко 1008.7 985.8
05 14.06 В 8 20 км ясно +30.4 +9.9 28 +30 +30 жарко 1008.2 985.5
06 14.06 ЮВ 10 20 км ясно +30.4 +9.9 28 +30 +30 жарко 1007.8 985.1 +24.0
07 14.06 ЮВ 13 20 км ясно +31.0 +10.4 28 +31 +31 жарко 1007.7 985.0
08 14.06 ЮВ 17 15 км 8/0
[As trans]
+33.8 +10.4 24 +33 +33 жарко 1007.3 984.8
09 14.06 ЮВ 18 10 км 10/0
[As trans]
+34.0 +10.0 23 +33 +33 жарко 1007.3 984.8
10 14.06 ЮВ 16 10 км 10/0
[As trans]
+34.6 +10.5 23 +34 +34 очень
жарко
1008.0 985.5
11 14.06 Ю 13 15 км 10/0
[As trans]
+34.2 +11.4 25 +34 +34 очень
жарко
1008.6 986.1
12 14.06 С 8 10 км 10/0 2000 м
[As trans]
+23.8 +16.8 65 +27 +29 жарко 1009.1 985.8
13 14.06 СЗ 8 10 км 9/3 600 м
[Cu med, cong Ac trans]
+23.2 +19.8 81 +30 +31 очень
душно
1009.5 986.1
14 14.06 З 6 15 км 9/4 540 м
[Cu med, cong Ac trans]
+21.6 +20.4 93 +27 +29 душно 1011.5 988.0
15 14.06 СЗ 4 10 км 9/4 540 м
[Cu med, cong Ac trans]
+21.4 +20.0 92 +27 +29 душно 1012.6 989.0
16 14.06 ЮЗ 8 10 км 8/4 450 м
[Cu med, cong Ac trans]
+21.2 +20.0 93 +26 +27 душно 1012.6 989.0
17 14.06 Ю 7 15 км 8/4 360 м
[Cu med, cong Ac trans]
+21.0 +19.7 92 +26 +26 душно 1012.9 989.3
18 14.06 Ю 7 10 км 8/8 300 м
[St]
+20.0 +18.8 93 +23 +23 комфорт 1013.8 990.1 +35.0
19 14.06 Ю 6 15 км 5/5 300 м
[St]
+20.0 +19.0 94 +23 +23 комфорт 1014.5 990.8
20 14.06 Ю 3 15 км 5/5 300 м
[St]
+19.4 +18.2 93 +22 +22 комфорт 1015.4 991.6
21 14.06 Ю 5 10 км 5/5 300 м
[St]
+19.2 +17.7 91 +21 +21 комфорт 1015.8 992.0
22 14.06 Ю 5 10 км 5/5 300 м
[St]
+19.0 +17.3 90 +20 +20 1016.1 992.2
23 14.06 В 3 10 км 5/5 300 м
[St]
+19.0 +17.3 90 +21 +21 комфорт 1016.6 992.7
00 15.06 ЮЗ 3 10 км 5/5 300 м
[St]
+19.0 +17.3 90 +21 +21 комфорт 1016.6 992.7
01 15.06 Ю 4 15 км 5/5 300 м
[St]
+19.0 +17.3 90 +20 +20 1015.9 992.1
02 15.06 Ю 4 10 км 6/6 300 м
[St]
+18.6 +16.6 88 +19 +19 1016.3 992.4
03 15.06 Ю 3 10 км 6/6 300 м
[St]
+18.6 +16.4 87 +20 +20 1016.3 992.4
04 15.06 Ю 2 10 км 6/6 300 м
[St]
+18.6 +16.4 87 +20 +20 1016.3 992.4
05 15.06 штиль 0 10 км 4/4 240 м
[St]
+18.4 +16.2 87 +19 +20 1016.4 992.5
06 15.06 штиль 0 10 км 6/6 240 м
[St]
+18.4 +16.2 87 +19 +20 1016.7 992.8 +18.2
07 15.06 Ю 1 10 км 8/4 240 м
[St Ci fib]
+18.8 +16.6 87 +21 +25 комфорт 1016.8 992.9
08 15.06 В 1 10 км 5/0
[Ci fib]
+20.0 +17.4 85 +24 +35 комфорт 1016.8 993.0
09 15.06 ЮЗ 3 20 км ясно +20.2 +17.2 83 +24 +37 комфорт 1017.0 993.2
10 15.06 ЮЗ 3 20 км ясно +21.2 +18.6 85 +26 +42 душно 1016.9 993.2
11 15.06 З 5 20 км ясно +20.2 +18.5 90 +24 +35 комфорт 1017.0 993.2
12 15.06 З 3 20 км 4/0
[Ci fib]
+21.2 +18.6 85 +26 +41 душно 1016.9 993.2
13 15.06 З 2 20 км 6/0
[Ci fib]
+21.4 +19.5 89 +26 +42 душно 1017.4 993.7
14 15.06 З 1 20 км 6/0
[Ci fib]
+24.0 +16.0 61 +27 +43 жарко 1017.2 993.7
15 15.06 ЮЗ 2 20 км 6/0
[Ci fib]
+22.0 +19.4 85 +27 +37 душно 1016.9 993.3
16 15.06 ЮЗ 2 20 км 5/0
[Ci fib]
+21.2 +19.5 90 +26 +32 душно 1016.7 993.0
17 15.06 ЮЗ 3 20 км ясно +21.0 +20.2 95 +26 +29 душно 1016.2 992.5
18 15.06 ЮЗ 3 20 км ясно +20.8 +20.3 97 +26 +26 душно 1016.1 992.4 +24.0
19 15.06 ЮЗ 3 20 км ясно +20.2 +19.0 93 +24 +24 комфорт 1016.6 992.8
20 15.06 ЮЗ 1 20 км ясно +19.8 +18.1 90 +24 +24 комфорт 1016.7 992.9
21 15.06 ЮЗ 2 20 км ясно +20.0 +17.8 87 +24 +24 комфорт 1017.0 993.2
22 15.06 ЮЗ 4 20 км ясно +20.0 +18.8 93 +23 +23 комфорт 1017.5 993.7
23 15.06 З 2 20 км ясно +20.0 +18.1 89 +24 +24 комфорт 1017.6 993.8
00 16.06 Ю 2 20 км ясно +19.4 +17.7 90 +22 +22 комфорт 1017.7 993.9
01 16.06 СЗ 2 20 км ясно +19.0 +17.3 90 +21 +21 комфорт 1017.6 993.7
02 16.06 ЮЗ 1 20 км ясно +18.4 +16.7 90 +20 +20 1016.9 993.0
03 16.06 СЗ 2 20 км ясно +18.4 +16.4 88 +20 +20 1016.9 993.0
04 16.06 З 2 10 км 5/5 600 м
[Cu med, cong]
+18.2 +15.8 86 +19 +19 1016.9 993.0
05 16.06 Ю 2 10 км 3/3 600 м
[Cu med, cong]
+18.2 +15.1 82 +19 +20 1016.9 993.0
06 16.06 В 1 10 км 5/5 360 м
[St]
+18.2 +16.5 90 +20 +21 1017.4 993.5 +18.0
07 16.06 С 1 15 км 3/3 360 м
[St]
+18.4 +16.7 90 +20 +25 1017.4 993.5
08 16.06 СВ 2 20 км 3/3 360 м
[Cu hum]
+19.8 +17.6 87 +23 +31 комфорт 1017.7 993.9

 

Местоположение метеостанции Капо Кацция (Италия): широта 40.57 долгота 8.17 высота над уровнем моря 204 м.

В архиве по умолчанию представлена погода на Капо Кацция за последнюю неделю. Архивные данные за месяц целиком и за предыдущие месяцы, начиная с января 2011 года, Вы можете получить, выбрав интересующий диапазон дат из раскрывающегося списка и нажав кнопку "Ввод!".


*Определитесь, кто Вы:
робот инопланетянин человек

Внимание! Время в таблицах - всемирное. Для получения местного времени необходимо прибавить поправку, которая равна 1 ч.

Смотрите также архив погоды в соседних городах и на ближайших метеорологических станциях:

Погода в Альгеро (Италия) (11 км)
Погода на Капо Фраска (Италия) (95 км)
Погода в Ольвии (Италия) (120 км)
Погода на Мысе Пертюзато (Франция) (122 км)
Погода в Фигари (Франция) (130 км)
Погода на Капо Беллависто (Италия) (150 км)
Погода в Дечимоманну (Италия) (152 км)
Погода в Ла Парате (Франция) (155 км)
Погода в Аяччо (Франция) (159 км)
Погода в Соленцаре (Франция) (182 км)

Пояснения к столбцам:

Ветер - указаны скорость ветра в м/с - средняя за 10 мин, порывы в срок и между сроками (в фигурных скобках) и направление, откуда дует ветер: С - северный, СВ - северо-восточный, В - восточный, ЮВ - юго-восточный, Ю - южный, ЮЗ - юго-западный, З - западный, СЗ - северо-западный.
Видимость - горизонтальная дальность видимости в метрах или километрах. При видимости от 1 до 10 км при отсутствии осадков обычно наблюдается дымка, при ухудшении видимости до 1 км и менее - туман. В сухую погоду видимость может ухудшаться дымом, пылью или мглою.
Явления - указаны атмосферные явления, наблюдавшиеся в срок или в последний час перед сроком; фигурными скобками обозначены явления, наблюдавшиеся между сроками (за 1-3 часа до срока); квадратными скобками обозначены град или гололедные отложения с указанием их диаметра в мм.
Облачность - указаны через наклонную черту общая и нижняя облачность в баллах и высота нижней границы облаков в метрах; квадратными скобками обозначены формы облаков: Ci - перистые, Cs - перисто-слоистые, Cc - перисто-кучевые, Ac - высококучевые, As - высокослоистые, Sc - слоисто-кучевые, Ns - слоисто-дождевые, Cu - кучевые, Cb - кучево-дождевые. Подробнее классификацию облаков см. в Атласе облаков (PDF).
T - Температура воздуха - температура, измеренная на высоте 2 м над землей.
Td - Температура точки росы - температура, при понижении до которой содержащийся в воздухе водяной пар достигнет насыщения.
f - Относительная влажность воздуха - влажноcть воздуха, измеренная на высоте 2 м над землей.
Te - Эффективная температура - температура, которую ощущает одетый по сезону человек в тени. Характеристика душности погоды. При расчете учитывается влияние влажности воздуха и скорости ветра на теплоощущения человека.
Tes - Эффективная температура на солнце - температура, которую ощущает человек, с поправкой на солнечный нагрев. Характеристика знойности погоды. Зависит от высоты солнца над горизонтом, облачности и скорости ветра. Ночью, в пасмурную погоду, а также при ветре 12 м/с и более поправка равна нулю.
P - Атмосферное давление - приведенное к уровню моря атмосферное давление.
Po - Атмосферное давление - измеренное на уровне метеостанции атмосферное давление.
Tmin - Минимальная температура - минимум температуры воздуха на высоте 2 м над землей.
Tmax - Максимальная температура - максимум температуры воздуха на высоте 2 м над землей.
R - Количество осадков - Количество выпавших осадков за период времени, мм. При наведении курсора мыши на число - период времени, за который выпало указанное количество осадков.
R24 - Количество осадков - Количество выпавших осадков за 24 часа, мм.
S - Снежный покров - Высота снежного покрова, см. При наведении курсора мыши на число - состояние снежного покрова и степень покрытия местности в баллах.